Regional Weather Roundup
Issued by NWS Kansas City/Pleasant Hill, MO

Home | Current Version | Previous Version | Graphics & Text | Print | Product List | Glossary Off
Versions: 1 2 3 4 5 6 7 8 9 10 11 12 13 14 15 16 17 18 19 20 21 22 23 24 25 26 27 28 29 30 31 32 33 34 35 36 37 38 39 40 41 42 43 44 45 46 47 48 49 50

000
ASUS43 KEAX 241010
RWREAX

WEATHER ROUNDUP FOR EASTERN KANSAS AND NORTHWEST MISSOURI
NATIONAL WEATHER SERVICE KANSAS CITY/PLEASANT HILL MO
400 AM CST SAT FEB 24 2018

KSZ040-057-103>105-MOZ028-029-037-043-241100-
...KANSAS CITY METROPOLITAN AREA...

CITY           SKY/WX    TMP DP  RH WIND       PRES   REMARKS
K.C. INTL      LGT RAIN  34  32  92 NE12      30.01F FOG     WCI  25
K.C. DOWNTOWN  MIX PCPN  36  33  89 E9        30.00F FOG     WCI  29
LEES SUMMIT    CLOUDY    34  34 100 NE12      30.00F FOG     WCI  25
OLATHE - IXD   CLOUDY    34  34 100 E8        29.99F FOG     WCI  27
OLATHE - OJC   CLOUDY    33  33 100 E12       29.98F FOG     WCI  24
LAWRENCE       CLOUDY    34  34 100 NE6       30.01S FOG     WCI  29

$$

MOZ001>008-011>017-020>025-030>033-038>040-044>046-053-054-241100-
...NORTHERN AND CENTRAL MISSOURI...

CITY           SKY/WX    TMP DP  RH WIND       PRES   REMARKS
ST. JOSEPH     CLOUDY    31  30  96 E10       30.04F FOG     WCI  22
MOSBY          MIX PCPN  34  32  93 E13       30.02F WCI  25
WARRENSBURG    DRIZZLE   34  34 100 NE8       30.01F WCI  27
WHITEMAN AFB   LGT RAIN N/A N/A N/A NE8       29.99F
CLINTON        LGT RAIN  36  36 100 NE10      30.00F WCI  28
SEDALIA        MIX PCPN  37  37 100 NE9       30.02F FOG     WCI  30
WARSAW         NOT AVBL
CHILLICOTHE      N/A     32  30  92 NE7       30.08F WCI  26
KIRKSVILLE     FRZ RAIN  31  30  96 NE14      30.08F FOG     WCI  21

$$

MOZ041-047>049-056>058-063>065-088>090-097-241100-
...EASTERN AND SOUTHERN MISSOURI...

CITY           SKY/WX    TMP DP  RH WIND       PRES   REMARKS
ST. LOUIS INTL HVY RAIN  40  39  97 E12       30.09R FOG     WCI  33
SPIRIT OF STL  HVY RAIN  40  40 100 E9        30.05F FOG     WCI  34
COLUMBIA       RAIN      37  36  96 NE10      30.02R FOG     WCI  30
JEFFERSON CITY CLOUDY    39  37  92 NE7       30.02S WCI  34
ROLLA          HVY RAIN  42  42 100 E21       29.96F FOG     WCI  33
OSAGE BEACH    LGT RAIN  40  39  97 N6        29.98R
SPRINGFIELD    LGT RAIN  50  49  96 S13       29.94F
BRANSON        CLOUDY    46  46 100 E5        29.96F FOG
JOPLIN         CLOUDY    40  40 100 CALM      29.94F FOG
WEST PLAINS    CLOUDY    48  47  96 VRB5G16   29.97F

$$

IAZ060-094-KSZ022-034>040-054-083-096-NEZ052-066-093-241100-
...KANSAS...SOUTHEAST NEBRASKA AND IOWA...

CITY           SKY/WX    TMP DP  RH WIND       PRES   REMARKS
TOPEKA         CLOUDY    34  34 100 E10       29.99F FOG     WCI  26
MANHATTAN      CLOUDY    33  31  92 E10       29.98F FOG     WCI  25
EMPORIA        CLOUDY    32  31  96 E9        29.96F FOG     WCI  24
CHANUTE        CLOUDY    36  35  96 NE10      29.96F FOG     WCI  28
WICHITA        DRIZZLE   33  33 100 NE8       29.93F FOG     WCI  26
OMAHA          CLOUDY    23  20  88 E8        30.09F WCI  14
LINCOLN        CLOUDY    22  20  92 NE13      30.06F FOG     WCI  10
FALLS CITY     FRZ RAIN  29  27  92 E13       30.03F FOG     WCI  19
LAMONI         MIX PCPN  27  23  85 NE13      30.08F WCI  16
DES MOINES     PTCLDY    24  20  84 NE6       30.13F WCI  17

$$




USA.gov is the U.S. government's official web portal to all federal, state and local government web resources and services.